Zurück zum Katalog

COSMOS 397 DEB

AktivLEO
NORAD 5042·DEBRIS·🇷🇺 Russia

Gestartet Feb 25, 1971 von Baikonur Cosmodrome

Loading…

Nächste Überflüge

TLE

Source: Space-Track
1 05042U 71015P   26228.42423930  .00001655  00000-0  39820-3 0  9994
2 05042  65.6059  19.6831 0564964 276.1921  77.5102 13.88661201660486

Verfolge COSMOS 397 DEB in Echtzeit mit AllMySat

Download on the App Store